FW1404 Weather Reports


Display with metric or nautical units.
time (UTC)temp
F
wind
direction
speed
MPH
gust
MPH
rain 1hr
in
rain 24hr
in
rain mn
in
humidity
%
barometer
mb
20260506051133 53 139 3.0 4.0 0.00 0.32 0.31 90 1003.4
20260506050909 53 135 1.0 3.0 0.00 0.32 0.31 90 1003.5
20260506050133 53 128 2.0 3.0 0.00 0.32 0.31 90 1003.5
20260506045132 53 120 2.0 4.0 0.00 0.32 0.31 90 1003.6
20260506044633 53 120 2.0 4.0 0.00 0.32 0.31 90 1003.5
20260506044133 53 125 2.0 5.0 0.00 0.32 0.31 90 1003.5
20260506043622 53 128 2.0 5.0 0.00 0.32 0.31 90 1003.6
20260506043117 53 125 0.0 3.0 0.00 0.32 0.31 90 1003.5
20260506042623 53 125 1.0 4.0 0.00 0.32 0.31 90 1003.6
20260506042117 53 125 2.0 4.0 0.00 0.32 0.31 90 1003.6
20260506041618 53 125 0.0 2.0 0.00 0.32 0.31 90 1003.7
20260506041116 53 125 2.0 3.0 0.00 0.32 0.31 90 1003.6
20260506040619 53 125 1.0 3.0 0.00 0.32 0.31 90 1003.7
20260506040114 53 125 0.0 2.0 0.00 0.32 0.31 90 1003.9
20260506035623 53 125 1.0 0.0 0.00 0.32 0.31 90 1003.9
20260506035033 53 125 2.0 3.0 0.00 0.32 0.31 90 1003.7
20260506034532 53 125 2.0 3.0 0.00 0.32 0.31 90 1003.7
20260506034024 53 84 2.0 2.0 0.00 0.32 0.31 90 1003.7
20260506033512 53 82 0.0 1.0 0.00 0.32 0.31 90 1003.5
20260506033010 53 82 0.0 3.0 0.00 0.32 0.31 90 1003.5
20260506032510 53 82 1.0 3.0 0.00 0.32 0.31 90 1003.4
20260506032007 53 82 1.0 3.0 0.00 0.32 0.31 90 1003.4
20260506031506 53 82 1.0 4.0 0.00 0.32 0.31 90 1003.3
20260506031003 53 82 2.0 4.0 0.00 0.32 0.31 90 1003.2
20260506030502 53 61 2.0 5.0 0.00 0.32 0.31 90 1003.2
20260506030243 53 63 2.0 5.0 0.00 0.32 0.31 89 1003.2
20260506025739 53 75 2.0 5.0 0.01 0.32 0.31 89 1003.3
20260506024950 53 60 3.0 7.0 0.02 0.32 0.31 89 1003.3
20260506024450 53 91 3.0 9.0 0.04 0.32 0.31 90 1003.5
20260506024226 53 71 4.0 6.0 0.06 0.32 0.31 90 1003.4
20260506023438 53 67 5.0 9.0 0.08 0.32 0.31 89 1003.5
20260506022935 54 120 4.0 9.0 0.09 0.32 0.31 89 1003.5
20260506022439 54 57 3.0 10.0 0.11 0.32 0.31 89 1003.5
20260506021934 54 77 7.0 10.0 0.12 0.32 0.31 89 1003.6
20260506021436 54 64 5.0 7.0 0.12 0.32 0.31 89 1003.4
20260506020935 54 82 4.0 10.0 0.12 0.32 0.31 89 1003.4
20260506020435 54 61 5.0 10.0 0.13 0.32 0.31 89 1003.5
20260506020016 54 53 9.0 12.0 0.13 0.19 0.30 89 1003.2
20260506015956 54 89 4.0 12.0 0.13 0.19 0.31 89 1003.4
20260506014933 55 80 7.0 12.0 0.01 0.19 0.28 89 1003.2
20260506014434 55 84 5.0 12.0 0.01 0.19 0.27 89 1003.4
20260506013935 55 60 4.0 15.0 0.01 0.19 0.25 89 1003.6
20260506013436 55 359 5.0 15.0 0.02 0.19 0.24 89 1004.1
20260506013220 55 46 12.0 15.0 0.05 0.19 0.22 89 1004.0
20260506012736 55 36 5.0 6.0 0.06 0.19 0.20 89 1004.6
20260506011932 55 34 2.0 5.0 0.09 0.19 0.20 89 1004.9
20260506011432 55 8 3.0 5.0 0.09 0.19 0.20 89 1004.9
20260506010932 55 354 2.0 5.0 0.10 0.19 0.20 89 1004.9
20260506010434 55 342 3.0 4.0 0.12 0.19 0.19 89 1005.0
20260506010224 55 339 3.0 4.0 0.00 0.07 0.18 89 1005.1
20260506005433 55 339 1.0 3.0 0.00 0.07 0.17 89 1005.1
20260506005003 56 273 0.0 1.0 0.12 0.07 0.17 89 1005.2
20260506004505 56 273 0.0 3.0 0.13 0.07 0.17 89 1005.2
20260506003949 56 273 2.0 3.0 0.12 0.07 0.17 89 1005.3
20260506003449 56 273 0.0 4.0 0.11 0.07 0.16 88 1005.4
20260506002948 55 276 3.0 7.0 0.09 0.07 0.13 88 1005.5
20260506002448 56 253 4.0 7.0 0.06 0.07 0.10 88 1005.5
20260506001948 55 262 5.0 7.0 0.04 0.07 0.09 88 1005.5
20260506001448 55 235 4.0 7.0 0.05 0.07 0.08 88 1005.6
20260506000947 55 238 4.0 4.0 0.04 0.07 0.07 88 1005.5
20260506000446 55 41 2.0 3.0 0.02 0.07 0.06 88 1005.2
20260506000038 55 37 3.0 6.0 0.02 0.05 0.06 87 1004.9
20260506000020 55 41 0.0 5.0 0.02 0.05 0.06 87 1004.9
20260505235239 56 19 4.0 6.0 0.02 0.05 0.06 87 1004.8
20260505234448 56 34 3.0 4.0 0.02 0.05 0.06 87 1004.9
20260505233947 56 39 3.0 7.0 0.02 0.05 0.06 87 1004.9
20260505233449 56 37 2.0 7.0 0.02 0.05 0.05 87 1004.8
20260505232948 56 27 3.0 6.0 0.02 0.05 0.05 87 1004.8
20260505232443 56 33 3.0 6.0 0.02 0.05 0.05 87 1004.9
20260505231932 56 37 3.0 6.0 0.02 0.05 0.04 87 1005.0
20260505231431 56 10 4.0 5.0 0.01 0.05 0.04 87 1004.9
20260505231232 56 40 2.0 3.0 0.02 0.05 0.04 87 1005.0
20260505230433 56 41 2.0 3.0 0.04 0.05 0.04 87 1005.2
20260505230217 56 50 1.0 4.0 0.05 0.01 0.04 87 1005.2
20260505225433 56 50 0.0 6.0 0.05 0.01 0.04 86 1004.9
20260505224933 56 49 5.0 7.0 0.05 0.01 0.04 86 1004.7
20260505224431 56 58 5.0 11.0 0.05 0.01 0.04 86 1004.6
20260505224219 56 56 5.0 12.0 0.04 0.01 0.03 86 1004.6
20260505223431 56 60 5.0 12.0 0.04 0.01 0.03 85 1004.4
20260505222934 57 34 4.0 11.0 0.04 0.01 0.03 85 1004.6
20260505222432 57 68 5.0 11.0 0.04 0.01 0.03 85 1004.8
20260505221932 57 36 4.0 10.0 0.04 0.01 0.03 84 1004.6
20260505221431 57 29 4.0 9.0 0.04 0.01 0.03 84 1004.9
20260505220935 58 49 5.0 9.0 0.03 0.01 0.02 83 1004.9
20260505220741 58 43 5.0 6.0 0.01 0.01 0.00 82 1005.1
20260505215932 58 74 4.0 6.0 0.00 0.00 0.00 82 1005.5
20260505215729 58 94 4.0 5.0 0.00 0.00 0.00 82 1005.7
20260505214932 58 61 3.0 4.0 0.00 0.00 0.00 81 1005.6
20260505214432 58 67 2.0 4.0 0.00 0.00 0.00 81 1005.7
20260505213934 58 80 3.0 4.0 0.00 0.00 0.00 81 1005.7
20260505213432 58 70 2.0 4.0 0.00 0.00 0.00 81 1005.8
20260505212933 58 71 2.0 4.0 0.00 0.00 0.00 81 1005.8
20260505212430 58 70 4.0 5.0 0.00 0.00 0.00 81 1005.9
20260505212226 58 41 3.0 5.0 0.00 0.00 0.00 81 1005.8
20260505211424 58 34 2.0 5.0 0.00 0.00 0.00 81 1005.9
20260505210904 58 30 1.0 4.0 0.00 0.00 0.00 81 1006.0
20260505210403 58 30 2.0 6.0 0.00 0.00 0.00 80 1005.9
20260505205903 58 26 3.0 6.0 0.00 0.00 0.00 80 1005.8
20260505205404 58 34 4.0 6.0 0.00 0.00 0.00 80 1005.7
20260505204904 58 27 4.0 5.0 0.00 0.00 0.00 80 1005.9
20260505204406 58 56 3.0 6.0 0.00 0.00 0.00 80 1005.9
20260505203905 58 60 4.0 7.0 0.00 0.00 0.00 80 1005.9
20260505203405 58 47 3.0 7.0 0.00 0.00 0.00 80 1005.9
20260505202905 59 44 3.0 6.0 0.00 0.00 0.00 80 1005.9
20260505202404 59 53 4.0 9.0 0.00 0.00 0.00 80 1006.0
20260505201905 59 84 5.0 9.0 0.00 0.00 0.00 80 1005.9
20260505201652 59 54 4.0 7.0 0.00 0.00 0.00 80 1006.0
20260505201148 59 32 4.0 7.0 0.00 0.00 0.00 80 1005.9
20260505200705 59 60 5.0 7.0 0.00 0.00 0.00 79 1005.9
20260505195905 59 10 4.0 9.0 0.00 0.00 0.00 79 1005.8
20260505195657 59 54 4.0 9.0 0.00 0.00 0.00 79 1005.8
20260505194905 59 41 3.0 12.0 0.00 0.00 0.00 79 1005.7
20260505194403 59 57 7.0 12.0 0.00 0.00 0.00 79 1005.6
20260505193903 59 36 6.0 11.0 0.00 0.00 0.00 79 1005.6
20260505193403 60 46 7.0 11.0 0.00 0.00 0.00 79 1005.5
20260505193155 60 40 6.0 11.0 0.00 0.00 0.00 78 1005.6
20260505192713 60 37 7.0 11.0 0.00 0.00 0.00 78 1005.6
20260505191905 60 26 2.0 7.0 0.00 0.00 0.00 78 1005.8
20260505191403 60 39 6.0 7.0 0.00 0.00 0.00 78 1005.7
20260505190904 60 29 4.0 7.0 0.00 0.00 0.00 78 1005.7
20260505190405 60 44 3.0 9.0 0.00 0.00 0.00 77 1005.7
20260505185904 60 33 6.0 9.0 0.00 0.00 0.00 77 1005.7
20260505185404 61 26 4.0 11.0 0.00 0.00 0.00 77 1005.7
20260505184903 61 29 6.0 11.0 0.00 0.00 0.00 77 1005.7
20260505184343 61 41 5.0 9.0 0.00 0.00 0.00 77 1005.8
20260505183843 61 15 4.0 7.0 0.00 0.00 0.00 77 1005.9
20260505183341 61 29 4.0 7.0 0.00 0.00 0.00 77 1005.9
20260505183124 62 22 5.0 6.0 0.00 0.00 0.00 76 1005.9
20260505182342 62 29 4.0 7.0 0.00 0.00 0.00 76 1006.0
20260505181843 62 54 5.0 7.0 0.00 0.00 0.00 76 1006.0
20260505181342 62 37 5.0 7.0 0.00 0.00 0.00 76 1006.0
20260505180843 62 13 4.0 7.0 0.00 0.00 0.00 76 1005.9
20260505180341 62 32 2.0 9.0 0.00 0.00 0.00 74 1006.1
20260505175840 63 26 5.0 9.0 0.00 0.00 0.00 74 1006.0
20260505175621 63 37 4.0 9.0 0.00 0.00 0.00 74 1006.0
20260505174840 63 36 6.0 10.0 0.00 0.00 0.00 74 1005.9
20260505174340 63 46 5.0 10.0 0.00 0.00 0.00 74 1005.8
20260505173840 63 58 6.0 10.0 0.00 0.00 0.00 75 1005.8
20260505173341 64 56 5.0 9.0 0.00 0.00 0.00 75 1005.9
20260505173017 64 9 3.0 12.0 0.00 0.00 0.00 73 1005.9
20260505172950 64 29 6.0 9.0 0.00 0.00 0.00 75 1005.9
20260505172409 64 8 7.0 9.0 0.00 0.00 0.00 74 1005.9
20260505171340 64 20 8.0 12.0 0.00 0.00 0.00 73 1005.9
20260505170839 64 15 6.0 14.0 0.00 0.00 0.00 73 1006.1
20260505170339 65 22 8.0 14.0 0.00 0.00 0.00 73 1005.9
20260505165840 65 41 5.0 13.0 0.00 0.00 0.00 73 1006.0
20260505165341 65 19 6.0 13.0 0.00 0.00 0.00 73 1006.0
20260505164842 65 26 10.0 13.0 0.00 0.00 0.00 72 1006.0
20260505164408 66 34 7.0 10.0 0.00 0.00 0.00 72 1006.0
20260505164359 66 358 10.0 13.0 0.00 0.00 0.00 72 1006.1
20260505163339 66 29 6.0 12.0 0.00 0.00 0.00 70 1006.0
20260505163114 66 8 9.0 12.0 0.00 0.00 0.00 70 1006.0
20260505162339 67 6 6.0 11.0 0.00 0.00 0.00 70 1006.1
20260505162120 67 32 7.0 11.0 0.00 0.00 0.00 69 1006.1
20260505161622 67 47 6.0 9.0 0.00 0.00 0.00 69 1006.2
20260505160839 67 30 5.0 11.0 0.00 0.00 0.00 69 1006.1
20260505160338 67 10 7.0 12.0 0.00 0.00 0.00 69 1006.2
20260505152837 68 44 8.0 13.0 0.00 0.00 0.00 68 1006.1
20260505152338 68 46 7.0 14.0 0.00 0.00 0.00 68 1006.2
20260505151837 68 25 7.0 14.0 0.00 0.00 0.00 68 1006.1
20260505151337 69 58 9.0 13.0 0.00 0.00 0.00 69 1006.1
20260505150839 69 10 9.0 16.0 0.00 0.00 0.00 68 1006.1
20260505150615 69 354 11.0 16.0 0.00 0.00 0.00 68 1006.2
20260505140334 70 32 7.0 14.0 0.00 0.00 0.00 68 1006.7
20260505124806 69 29 5.0 11.0 0.00 0.00 0.00 68 1006.9
20260505124303 69 34 5.0 11.0 0.00 0.00 0.00 68 1006.9
20260505124041 69 46 5.0 11.0 0.00 0.00 0.00 68 1006.9
20260505123302 69 19 6.0 11.0 0.00 0.00 0.00 68 1006.9
20260505123053 69 50 2.0 14.0 0.00 0.00 0.00 68 1006.9
20260505122305 69 19 8.0 14.0 0.00 0.00 0.00 68 1007.0
20260505121806 69 65 7.0 13.0 0.00 0.00 0.00 69 1006.9
20260505121305 69 20 10.0 13.0 0.00 0.00 0.00 68 1006.9
20260505120807 69 10 10.0 19.0 0.00 0.00 0.00 68 1006.9
20260505120303 70 12 15.0 19.0 0.00 0.00 0.00 68 1006.8
20260505115804 70 6 9.0 17.0 0.00 0.00 0.00 67 1006.9
20260505115305 69 8 9.0 16.0 0.00 0.00 0.00 69 1006.8
20260505115046 69 3 5.0 14.0 0.00 0.00 0.00 69 1006.9
20260505114305 69 30 5.0 15.0 0.00 0.00 0.00 69 1006.9
20260505113804 69 22 6.0 15.0 0.00 0.00 0.00 68 1006.9
20260505113304 69 5 9.0 14.0 0.00 0.00 0.00 68 1006.9
20260505112805 69 2 9.0 16.0 0.00 0.00 0.00 67 1007.0
20260505112301 69 18 12.0 16.0 0.00 0.00 0.00 66 1006.9
20260505111805 70 10 9.0 16.0 0.00 0.00 0.00 64 1007.0
20260505111306 71 18 11.0 14.0 0.00 0.00 0.00 64 1007.1
20260505110804 73 335 4.0 14.0 0.00 0.00 0.00 65 1007.1
20260505110545 73 315 6.0 14.0 0.00 0.00 0.00 65 1007.0
20260505101737 71 9 6.0 11.0 0.00 0.00 0.00 64 1007.4
20260505101230 71 354 7.0 12.0 0.00 0.00 0.00 65 1007.4
20260505101036 71 3 3.0 14.0 0.00 0.00 0.00 66 1007.4
20260505100231 71 352 12.0 14.0 0.00 0.00 0.00 66 1007.4
20260505100014 70 327 2.0 14.0 0.00 0.00 0.00 67 1007.5
20260505095231 70 352 7.0 14.0 0.00 0.00 0.00 65 1007.5
20260505094731 71 26 7.0 13.0 0.00 0.00 0.00 65 1007.5
20260505094231 71 8 8.0 12.0 0.00 0.00 0.00 65 1007.4
20260505094011 71 8 4.0 13.0 0.00 0.00 0.00 65 1007.5
20260505093514 71 10 7.0 13.0 0.00 0.00 0.00 64 1007.6
20260505092729 71 8 7.0 11.0 0.00 0.00 0.00 65 1007.6
20260505092231 70 20 6.0 12.0 0.00 0.00 0.00 66 1007.6
20260505091730 70 356 7.0 12.0 0.00 0.00 0.00 66 1007.5
20260505091229 69 51 4.0 11.0 0.00 0.00 0.00 67 1007.6
20260505090730 68 19 6.0 11.0 0.00 0.00 0.00 69 1007.5
20260505090228 67 36 4.0 7.0 0.00 0.00 0.00 69 1007.6
20260505085728 67 105 6.0 10.0 0.00 0.00 0.00 70 1007.6
20260505085231 67 39 6.0 10.0 0.00 0.00 0.00 70 1007.6
20260505084730 67 30 6.0 9.0 0.00 0.00 0.00 70 1007.7
20260505084230 66 22 4.0 9.0 0.00 0.00 0.00 70 1007.8
20260505084016 67 29 4.0 7.0 0.00 0.00 0.00 70 1007.9
20260505083229 67 12 4.0 9.0 0.00 0.00 0.00 69 1007.9
20260505082729 67 13 4.0 9.0 0.00 0.00 0.00 68 1008.0
20260505082229 67 30 4.0 6.0 0.00 0.00 0.00 68 1008.0
20260505081727 67 356 3.0 5.0 0.00 0.00 0.00 69 1008.1
20260505081229 67 328 2.0 3.0 0.00 0.00 0.00 69 1008.1
20260505080729 67 356 2.0 5.0 0.00 0.00 0.00 69 1008.2
20260505080227 67 356 2.0 6.0 0.00 0.00 0.00 69 1008.2
20260505075729 67 16 4.0 6.0 0.00 0.00 0.00 69 1008.3
20260505075227 66 25 3.0 5.0 0.00 0.00 0.00 70 1008.3
20260505075019 66 33 2.0 5.0 0.00 0.00 0.00 70 1008.3
20260505074227 66 41 2.0 5.0 0.00 0.00 0.00 71 1008.3
20260505074012 65 74 1.0 4.0 0.00 0.00 0.00 72 1008.3
20260505073228 65 74 2.0 7.0 0.00 0.00 0.00 71 1008.2
20260505072726 64 47 6.0 7.0 0.00 0.00 0.00 72 1008.3
20260505072228 64 1 4.0 5.0 0.00 0.00 0.00 73 1008.4
20260505071727 64 39 1.0 5.0 0.00 0.00 0.00 72 1008.4
20260505071226 64 41 4.0 5.0 0.00 0.00 0.00 73 1008.4
20260505070727 63 74 2.0 6.0 0.00 0.00 0.00 73 1008.2
20260505070227 63 37 4.0 6.0 0.00 0.00 0.00 73 1008.2
20260505065727 63 58 3.0 6.0 0.00 0.00 0.00 73 1008.1
20260505065228 63 56 4.0 9.0 0.00 0.00 0.00 72 1008.1
20260505064728 64 80 5.0 9.0 0.00 0.00 0.00 72 1008.2
20260505064226 64 108 4.0 9.0 0.00 0.00 0.00 72 1008.2
20260505063727 64 89 6.0 9.0 0.00 0.00 0.00 74 1008.2
20260505063225 63 98 4.0 6.0 0.00 0.00 0.00 75 1008.2
20260505062725 62 71 2.0 7.0 0.00 0.00 0.00 74 1008.2
20260505062226 62 77 5.0 10.0 0.00 0.00 0.00 75 1008.2
20260505061726 61 37 5.0 10.0 0.00 0.00 0.00 75 1008.2
20260505061228 61 108 4.0 5.0 0.00 0.00 0.00 75 1008.1
20260505060728 60 68 2.0 7.0 0.00 0.00 0.00 75 1008.3
20260505060227 60 49 5.0 7.0 0.00 0.00 0.00 75 1008.2
20260505055726 60 68 4.0 6.0 0.00 0.00 0.00 76 1008.1
20260505055225 60 88 2.0 7.0 0.00 0.00 0.00 76 1008.1